Location: Freemans Gardens
(41.6414°N, 83.6077°W)
Time: 01:13:47
(UTC+00:00)

H-2A R/B - Visible Passes

Search period start: 27 February 2021 00:00
Search period end: 09 March 2021 00:00
Orbit: 734 x 836 km, 98.2° (Epoch: 26 February)

Date Brightness Start Highest point End Pass type
(mag) Time Alt. Az. Time Alt. Az. Time Alt. Az.
27 Feb 4.9 01:41:21 10° SW 01:44:46 17° W 01:48:13 10° NW visible
28 Feb 4.0 01:08:43 10° SSW 01:13:29 32° W 01:18:20 10° NNW visible
28 Feb 5.7 11:43:21 10° ENE 11:45:10 12° E 11:46:59 10° ESE visible
01 Mar 2.8 00:37:02 10° S 00:42:22 60° W 00:47:46 10° NNW visible
02 Mar 2.1 00:06:00 10° SSE 00:11:24 74° ENE 00:16:51 10° N visible
02 Mar 5.1 01:48:26 10° WSW 01:51:20 14° W 01:54:15 10° WNW visible
03 Mar 4.2 01:15:28 10° SSW 01:20:02 28° W 01:24:40 10° NW visible
04 Mar 3.1 00:43:37 10° S 00:48:53 52° W 00:54:13 10° NNW visible
05 Mar 2.2 00:12:27 10° SSE 00:17:53 85° ENE 00:23:22 10° NNW visible
05 Mar 5.2 01:55:46 10° WSW 01:57:56 12° W 02:00:06 10° WNW visible
06 Mar 4.5 01:22:16 10° SW 01:26:36 24° W 01:30:57 10° NW visible
07 Mar 3.4 00:50:14 10° S 00:55:25 45° W 01:00:38 10° NNW visible
08 Mar 2.3 00:18:56 10° SSE 00:24:22 84° WSW 00:29:51 10° NNW visible
08 Mar 5.4 02:03:46 10° W 02:04:31 10° W 02:05:18 10° WNW visible
